Regional Weather Roundup
Issued by NWS

Home | Current Version | Previous Version | Text Only | Print | Product List | Glossary On
Versions: 1 2 3 4 5 6 7 8 9 10 11 12 13 14 15 16 17 18 19 20 21 22 23 24 25 26 27 28 29 30 31 32 33 34 35 36 37 38 39 40 41 42 43 44 45 46 47 48 49 50
836
ASUS45 KTFX 100310
RWRMT
MONTANA REGIONAL WEATHER ROUNDUP
NATIONAL WEATHER SERVICE GREAT FALLS MT
800 PM MST TUE FEB 09 2016

NOTE: "FAIR" INDICATES FEW OR NO CLOUDS BELOW 12000 FEET WITH NO
SIGNIFICANT WEATHER AND/OR OBSTRUCTIONS TO VISIBILITY.

MTZ001>007-043-100400-
WEST OF THE DIVIDE

CITY           SKY/WX    TMP DP  RH WIND       PRES   REMARKS
KALISPELL      CLEAR     27  24  89 CALM      30.26F
MISSOULA       CLEAR     33  28  81 CALM      30.29F
BUTTE          CLOUDY    23  18  81 SE3       30.30F
MULLAN PASS    CLEAR     42  29  59 S8        30.26F
ANACONDA         N/A     30  27  86 SW6       30.29F WCI  24
DEER LODGE       N/A     30  27  86 CALM      30.30F
HAMILTON         N/A     34  28  80 SE3       30.28S
LIBBY            N/A     28  27  93 SE3       30.26F
$$

MTZ008-052>055-100400-
SOUTHWEST MONTANA

CITY           SKY/WX    TMP DP  RH WIND       PRES   REMARKS
BOZEMAN        CLOUDY    30  25  81 S5        30.29S
DILLON         CLOUDY    35  25  66 S12       30.30F WCI  27
THREE FORKS      N/A     28  25  89 CALM      30.24F
TWIN BRIDGES     N/A     29  20  69 SE6       30.26F WCI  23
$$

MTZ009-010-012-014-046-048-049-054-100400-
EAST SLOPES AND CENTRAL MONTANA

CITY           SKY/WX    TMP DP  RH WIND       PRES   REMARKS
CUT BANK       MOCLDY    47  26  44 W13       30.08S
GREAT FALLS    CLOUDY    47  21  35 S14       30.11F
MALMSTROM AFB  CLOUDY    51  20  29 SW18      30.11S
HELENA         CLOUDY    36  28  73 W3        30.25F
CHOTEAU          N/A     57  16  19 W12       30.12S
CONRAD           N/A     42  24  49 S8        30.09F
$$

MTZ011-013-016-021-045-047-050-051-100400-
NORTH CENTRAL MONTANA

CITY           SKY/WX    TMP DP  RH WIND       PRES   REMARKS
HAVRE          CLOUDY    41  29  62 SW16      30.01F
LEWISTOWN      CLOUDY    45  25  45 SW18      30.10S
CHINOOK          N/A     34  21  60 CALM      30.01F
$$

MTZ017>020-022>027-061-062-100400-
NORTHEAST MONTANA

CITY           SKY/WX    TMP DP  RH WIND       PRES   REMARKS
GLASGOW        CLOUDY    39  31  72 SW3       29.99F
JORDAN           N/A     31  28  89 SW7       30.03F WCI  24
SIDNEY         PTCLDY    32  21  64 CALM      30.01F
WOLF POINT     CLOUDY    33  29  85 CALM      30.00F
MALTA            N/A    N/A N/A N/A MISG      29.96
PLENTYWOOD       N/A     30  25  80 SE6       29.97F WCI  24
POPLAR           N/A     32  27  80 CALM      30.00F
$$

MTZ028>42-056>058-100400-
SOUTHCENTRAL AND SOUTHEAST MONTANA

CITY           SKY/WX    TMP DP  RH WIND       PRES   REMARKS
BAKER          CLOUDY    34  26  72 W9        30.02F WCI  27
BILLINGS       CLEAR     47  23  38 SW23      30.11F
LIVINGSTON     CLOUDY    38  25  59 NW17      30.24R WCI  28
MILES CITY     CLEAR     40  29  64 NW9       30.04F
FORSYTH          N/A     50  25  37 SW6       30.05F
LAUREL           N/A     43  22  43 SW9       30.10F
ROUNDUP          N/A     46  21  37 S3        29.99F
$$

REGIONAL REPORTS...DAKOTAS

CITY           SKY/WX    TMP DP  RH WIND       PRES   REMARKS
WILLISTON      CLOUDY    30  24  78 SW3       30.00F
MINOT          FLURRIES  24  15  68 E13       30.08F WCI  12
DICKINSON      PTCLDY    26  20  77 S5        30.00F
BEACH            N/A     28  27  93 CALM      30.03F
CROSBY           N/A     27  27 100 SE6       30.01F WCI  20
TIOGA            N/A     27  27 100 S5        30.04F
WATFORD CITY     N/A     30  25  80 CALM      30.01F
BISMARCK       CLOUDY    35  22  58 NE3       30.08F
GRAND FORKS    CLOUDY     4  -3  73 N9        30.25F WCI -10
FARGO          PTCLDY     8   2  76 NE10      30.24R WCI  -6
BUFFALO SD       N/A     33  26  75 W8        29.96F WCI  26
RAPID CITY     CLEAR     28  24  85 CALM      30.08F
$$

REGIONAL REPORTS...WYOMING/IDAHO/WASHINGTON

CITY           SKY/WX    TMP DP  RH WIND       PRES   REMARKS
GILLETTE       CLEAR     40  28  62 SW14      30.14F
SHERIDAN       CLEAR     45  19  36 S3        30.10F
BUFFALO WY     CLEAR     46  23  40 S6        30.16F
CODY           CLOUDY    36  21  55 CALM      30.22F
YELLOWSTONE LA   N/A     20  16  84 NW3       30.46S
IDAHO FALLS    FOG       14  11  87 N8        30.47F VSB 1/2 WCI   3
SALMON         CLOUDY    16  12  86 SE3       30.45F
BOISE          CLEAR     34  30  85 CALM      30.45R
SPOKANE        CLEAR     40  33  76 CALM      30.24S
$$

REGIONAL REPORTS...ALBERTA

CITY           SKY/WX    TMP DP  RH WIND       PRES   REMARKS
EDMONTON       PTCLDY    43  23  45 W6        29.93R
CALGARY        PTCLDY    50  14  23 VRB2      29.97F
LETHBRIDGE     PTCLDY    52  27  37 W24G32    30.00F
MEDICINE HAT   PTCLDY    36  30  80 SW13      29.96F WCI  27
WATERTON GATE    N/A     54  23  30 SW29G43     N/A
MILK RIVER       N/A     43  27  52 W16         N/A
ONEFOUR          N/A     41  28  60 NW6         N/A
$$

REGIONAL REPORTS...SASKATCHEWAN

CITY           SKY/WX    TMP DP  RH WIND       PRES   REMARKS
SWIFT CURRENT  PTCLDY    37  30  75 SW12      29.92F WCI  30
REGINA         CLOUDY    28  25  86 SE14      29.94F WCI  17
SASKATOON      MOCLDY    28  27  93 SE8       29.91F WCI  20
CYPRESS HILLS    N/A     43  19  39 W6          N/A
VAL MARIE        N/A     36  28  75 SW3         N/A
ASSINIBOIA       N/A     34  27  75 NW3         N/A
$$




USA.gov is the U.S. government's official web portal to all federal, state and local government web resources and services.